This is the latest recevied weather packets stored in our database for station/object OE-11349. If no packets are shown the sender has not sent any weather packets the latest 10 day(s).
| Time | Temp. | Humidity | Pressure | Rain* | Wind** | Luminosity | Snow |
|---|---|---|---|---|---|---|---|
| 1787964909 | 13.89° C | 74% | 852.3 hPa | - | - | 0 W/m² | - |
| 1787964082 | 14.44° C | 75% | 852.2 hPa | - | - | 0 W/m² | - |
| 1787963709 | 15° C | 75% | 852.2 hPa | - | - | 0 W/m² | - |
| 1787963108 | 15° C | 74% | 852.1 hPa | - | - | 0 W/m² | - |
| 1787962281 | 15.56° C | 72% | 851.7 hPa | - | - | 0 W/m² | - |
| 1787961908 | 15.56° C | 71% | 851.7 hPa | - | - | 0 W/m² | - |
| 1787961309 | 15.56° C | 71% | 852 hPa | - | - | 0 W/m² | - |
| 1787960482 | 15.56° C | 72% | 852 hPa | - | - | 0 W/m² | - |
| 1787960109 | 16.11° C | 67% | 851.9 hPa | - | - | 0 W/m² | - |
| 1787959508 | 16.67° C | 67% | 852.1 hPa | - | - | 0 W/m² | - |
| 1787958909 | 15.56° C | 77% | 852.1 hPa | - | - | 0 W/m² | - |
| 1787958309 | 16.67° C | 77% | 852.3 hPa | - | - | 0 W/m² | - |
| 1787957709 | 16.67° C | 71% | 852.3 hPa | - | - | 0 W/m² | - |
| 1787956882 | 16.67° C | 71% | 852.1 hPa | - | - | 0 W/m² | - |
| 1787956509 | 16.67° C | 71% | 852 hPa | - | - | 0 W/m² | - |
| 1787955909 | 17.22° C | 71% | 852.2 hPa | - | - | 0 W/m² | - |
| 1787955082 | 17.78° C | 62% | 851.7 hPa | - | - | 0 W/m² | - |
| 1787954708 | 18.33° C | 62% | 851.6 hPa | - | - | 0 W/m² | - |
| 1787954109 | 18.33° C | 61% | 851.6 hPa | - | - | 0 W/m² | - |
| 1787953282 | 18.33° C | 60% | 851.6 hPa | - | - | 0 W/m² | - |
| 1787952909 | 18.33° C | 62% | 851.6 hPa | - | - | 0 W/m² | - |
| 1787952309 | 18.33° C | 62% | 851.5 hPa | - | - | 0 W/m² | - |
| 1787951482 | 18.33° C | 62% | 851.6 hPa | - | - | 0 W/m² | - |
| 1787951109 | 18.33° C | 61% | 851.6 hPa | - | - | 0 W/m² | - |
| 1787950509 | 18.33° C | 59% | 851.4 hPa | - | - | 0 W/m² | - |
* Rain since midnight (hover to see other rain measurements)
** Current wind speed in m/s (hover to see current wind gust speed)